Location: Namasale
(1.5000°N, 32.6167°E)
Time: 18:25:50
(UTC+00:00)

Courier 1B - Pass Details

Date: 25 April 2021
Orbit: 962 x 1209 km, 28.3° (Epoch: 18 May)

Event Time Altitude Azimuth Distance (km) Brightness Sun altitude
Rises 07:14:08 0° 278° (W) 3,984 10.3 50.3°
Reaches altitude 10° 07:18:07 10° 297° (WNW) 2,974 9.9 51.2°
Maximum altitude 07:22:39 17° 336° (NNW) 2,413 9.8 52.3°
Drops below altitude 10° 07:27:03 10° 15° (NNE) 2,853 10.4 53.3°
Sets 07:30:46 0° 35° (NE) 3,756 11.0 54.2°
